Time,TemperatureF,DewpointF,PressureIn,WindDirection,WindDirectionDegrees,WindSpeedMPH,WindSpeedGustMPH,Humidity,HourlyPrecipIn,Conditions,Clouds,dailyrainin,SolarRadiationWatts/m^2,SoftwareType,DateUTC
2013-01-31 04:52:00,32.0,32.0,-100.00,ESE,105,0.0,1.0,100,0.00,,,0.00,0.000000,,2013-01-31 13:52:00,
2013-01-31 05:22:00,32.0,32.0,-100.00,ESE,105,0.0,1.0,100,0.00,,,0.00,0.000000,,2013-01-31 14:22:00,
2013-01-31 05:31:00,32.0,32.0,-100.00,ESE,105,0.0,1.0,100,0.00,,,0.00,0.000000,,2013-01-31 14:31:00,
2013-01-31 05:42:00,32.0,32.0,-100.00,ESE,105,0.0,1.0,100,0.00,,,0.00,0.000000,,2013-01-31 14:42:00,
2013-01-31 06:12:00,32.0,32.0,-100.00,WSW,239,0.0,4.0,100,0.00,,,0.00,0.000000,,2013-01-31 15:12:00,
2013-01-31 06:22:00,32.0,32.0,-100.00,WSW,239,0.0,4.0,100,0.00,,,0.00,0.000000,,2013-01-31 15:22:00,
2013-01-31 06:32:00,32.0,32.0,-100.00,WSW,239,0.0,4.0,100,0.00,,,0.00,0.000000,,2013-01-31 15:32:00,
2013-01-31 06:42:00,32.0,32.0,-100.00,WSW,239,0.0,4.0,100,0.00,,,0.00,0.000000,,2013-01-31 15:42:00,
2013-01-31 06:51:00,32.0,32.0,-100.00,WSW,239,0.0,4.0,100,0.00,,,0.00,0.000000,,2013-01-31 15:51:00,
2013-01-31 07:12:00,31.0,31.0,-100.00,NNE,12,1.0,1.0,100,0.00,,,0.00,0.000000,,2013-01-31 16:12:00,
2013-01-31 07:21:00,31.0,31.0,-100.00,NNE,12,1.0,1.0,100,0.00,,,0.00,0.000000,,2013-01-31 16:21:00,
2013-01-31 07:32:00,31.0,31.0,-100.00,NNE,12,1.0,1.0,100,0.00,,,0.00,0.000000,,2013-01-31 16:32:00,
2013-01-31 07:41:00,31.0,31.0,-100.00,NNE,12,1.0,1.0,100,0.00,,,0.00,0.000000,,2013-01-31 16:41:00,
2013-01-31 07:51:00,31.0,31.0,-100.00,NNE,12,1.0,1.0,100,0.00,,,0.00,0.000000,,2013-01-31 16:51:00,
2013-01-31 07:52:00,32.0,32.0,-100.00,ENE,77,0.0,0.0,100,0.00,,,0.00,0.000000,,2013-01-31 16:52:00,
2013-01-31 08:12:00,32.0,32.0,-100.00,ENE,77,0.0,0.0,100,0.00,,,0.00,0.000000,,2013-01-31 17:12:00,
2013-01-31 08:22:00,32.0,32.0,-100.00,ENE,77,0.0,0.0,100,0.00,,,0.00,0.000000,,2013-01-31 17:22:00,
2013-01-31 08:32:00,32.0,32.0,-100.00,ENE,77,0.0,0.0,100,0.00,,,0.00,0.000000,,2013-01-31 17:32:00,
2013-01-31 08:43:00,32.0,32.0,-100.00,ENE,77,0.0,0.0,100,0.00,,,0.00,0.000000,,2013-01-31 17:43:00,
2013-01-31 08:52:00,32.0,32.0,-100.00,SSW,198,0.0,1.0,100,0.00,,,0.00,0.000000,,2013-01-31 17:52:00,
2013-01-31 09:12:00,32.0,32.0,-100.00,SSW,198,0.0,1.0,100,0.00,,,0.00,0.000000,,2013-01-31 18:12:00,
2013-01-31 09:21:00,32.0,32.0,-100.00,SSW,198,0.0,1.0,100,0.00,,,0.00,0.000000,,2013-01-31 18:21:00,
2013-01-31 09:32:00,32.0,32.0,-100.00,SSW,198,0.0,1.0,100,0.00,,,0.00,0.000000,,2013-01-31 18:32:00,
2013-01-31 09:42:00,32.0,32.0,-100.00,SSW,198,0.0,1.0,100,0.00,,,0.00,0.000000,,2013-01-31 18:42:00,
2013-01-31 10:21:00,32.0,32.0,-100.00,WSW,241,0.0,1.0,100,0.00,,,0.00,1.000000,,2013-01-31 19:21:00,
2013-01-31 10:32:00,32.0,32.0,-100.00,WSW,241,0.0,1.0,100,0.00,,,0.00,1.000000,,2013-01-31 19:32:00,
2013-01-31 10:42:00,32.0,32.0,-100.00,WSW,241,0.0,1.0,100,0.00,,,0.00,1.000000,,2013-01-31 19:42:00,
2013-01-31 10:51:00,32.0,32.0,-100.00,WSW,241,0.0,1.0,100,0.00,,,0.00,1.000000,,2013-01-31 19:51:00,
2013-01-31 10:52:00,32.0,32.0,-100.00,ENE,63,0.0,0.0,100,0.00,,,0.00,10.000000,,2013-01-31 19:52:00,
2013-01-31 11:21:00,32.0,32.0,-100.00,ENE,63,0.0,0.0,100,0.00,,,0.00,10.000000,,2013-01-31 20:21:00,
2013-01-31 11:31:00,32.0,32.0,-100.00,ENE,63,0.0,0.0,100,0.00,,,0.00,10.000000,,2013-01-31 20:31:00,
2013-01-31 11:42:00,32.0,32.0,-100.00,ENE,63,0.0,0.0,100,0.00,,,0.00,10.000000,,2013-01-31 20:42:00,
2013-01-31 11:52:00,33.0,33.0,-100.00,West,280,0.0,1.0,99,0.00,,,0.00,17.000000,,2013-01-31 20:52:00,
2013-01-31 12:21:00,33.0,33.0,-100.00,West,280,0.0,1.0,99,0.00,,,0.00,17.000000,,2013-01-31 21:21:00,
2013-01-31 12:31:00,33.0,33.0,-100.00,West,280,0.0,1.0,99,0.00,,,0.00,17.000000,,2013-01-31 21:31:00,
2013-01-31 12:42:00,33.0,33.0,-100.00,West,280,0.0,1.0,99,0.00,,,0.00,17.000000,,2013-01-31 21:42:00,
2013-01-31 13:22:00,33.0,32.0,-100.00,WSW,258,0.0,2.0,97,0.00,,,0.00,27.000000,,2013-01-31 22:22:00,
2013-01-31 13:32:00,33.0,32.0,-100.00,WSW,258,0.0,2.0,97,0.00,,,0.00,27.000000,,2013-01-31 22:32:00,
2013-01-31 13:42:00,33.0,32.0,-100.00,WSW,258,0.0,2.0,97,0.00,,,0.00,27.000000,,2013-01-31 22:42:00,
2013-01-31 13:51:00,33.0,32.0,-100.00,WSW,258,0.0,2.0,97,0.00,,,0.00,27.000000,,2013-01-31 22:51:00,
2013-01-31 13:52:00,33.0,32.0,-100.00,NE,44,0.0,1.0,96,0.00,,,0.00,38.000000,,2013-01-31 22:52:00,
2013-01-31 14:21:00,33.0,32.0,-100.00,NE,44,0.0,1.0,96,0.00,,,0.00,38.000000,,2013-01-31 23:21:00,
2013-01-31 14:31:00,33.0,32.0,-100.00,NE,44,0.0,1.0,96,0.00,,,0.00,38.000000,,2013-01-31 23:31:00,
2013-01-31 14:41:00,33.0,32.0,-100.00,NE,44,0.0,1.0,96,0.00,,,0.00,38.000000,,2013-01-31 23:41:00,
2013-01-31 15:11:00,33.0,32.0,-100.00,WNW,295,0.0,2.0,96,0.01,,,0.01,36.000000,,2013-02-01 00:11:00,
2013-01-31 15:21:00,33.0,32.0,-100.00,WNW,295,0.0,2.0,96,0.01,,,0.01,36.000000,,2013-02-01 00:21:00,
2013-01-31 15:31:00,33.0,32.0,-100.00,WNW,295,0.0,2.0,96,0.01,,,0.01,36.000000,,2013-02-01 00:31:00,
2013-01-31 15:42:00,33.0,32.0,-100.00,WNW,295,0.0,2.0,96,0.01,,,0.01,36.000000,,2013-02-01 00:42:00,
2013-01-31 15:51:00,33.0,32.0,-100.00,WNW,295,0.0,2.0,96,0.01,,,0.01,36.000000,,2013-02-01 00:51:00,
2013-01-31 16:11:00,32.0,31.0,-100.00,North,356,1.0,5.0,97,0.00,,,0.01,30.000000,,2013-02-01 01:11:00,
2013-01-31 16:21:00,32.0,31.0,-100.00,North,356,1.0,5.0,97,0.00,,,0.01,30.000000,,2013-02-01 01:21:00,
2013-01-31 16:31:00,32.0,31.0,-100.00,North,356,1.0,5.0,97,0.00,,,0.01,30.000000,,2013-02-01 01:31:00,
2013-01-31 16:41:00,32.0,31.0,-100.00,North,356,1.0,5.0,97,0.00,,,0.01,30.000000,,2013-02-01 01:41:00,
2013-01-31 16:51:00,32.0,31.0,-100.00,North,356,1.0,5.0,97,0.00,,,0.01,30.000000,,2013-02-01 01:51:00,
2013-01-31 16:52:00,31.0,31.0,-100.00,NNW,343,0.0,3.0,98,0.00,,,0.01,17.000000,,2013-02-01 01:52:00,
2013-01-31 17:11:00,31.0,31.0,-100.00,NNW,343,0.0,3.0,98,0.00,,,0.01,17.000000,,2013-02-01 02:11:00,
2013-01-31 17:21:00,31.0,31.0,-100.00,NNW,343,0.0,3.0,98,0.00,,,0.01,17.000000,,2013-02-01 02:21:00,
2013-01-31 17:31:00,31.0,31.0,-100.00,NNW,343,0.0,3.0,98,0.00,,,0.01,17.000000,,2013-02-01 02:31:00,
2013-01-31 17:41:00,31.0,31.0,-100.00,NNW,343,0.0,3.0,98,0.00,,,0.01,17.000000,,2013-02-01 02:41:00,
2013-01-31 18:12:00,30.0,30.0,-100.00,NW,309,0.0,4.0,99,0.00,,,0.01,2.000000,,2013-02-01 03:12:00,
2013-01-31 18:21:00,30.0,30.0,-100.00,NW,309,0.0,4.0,99,0.00,,,0.01,2.000000,,2013-02-01 03:21:00,
2013-01-31 18:32:00,30.0,30.0,-100.00,NW,309,0.0,4.0,99,0.00,,,0.01,2.000000,,2013-02-01 03:32:00,
2013-01-31 18:41:00,30.0,30.0,-100.00,NW,309,0.0,4.0,99,0.00,,,0.01,2.000000,,2013-02-01 03:41:00,
2013-01-31 18:51:00,30.0,30.0,-100.00,NW,309,0.0,4.0,99,0.00,,,0.01,2.000000,,2013-02-01 03:51:00,
2013-01-31 19:11:00,28.0,28.0,-100.00,WNW,300,0.0,3.0,99,0.00,,,0.01,0.000000,,2013-02-01 04:11:00,
2013-01-31 19:21:00,28.0,28.0,-100.00,WNW,300,0.0,3.0,99,0.00,,,0.01,0.000000,,2013-02-01 04:21:00,
2013-01-31 19:31:00,28.0,28.0,-100.00,WNW,300,0.0,3.0,99,0.00,,,0.01,0.000000,,2013-02-01 04:31:00,
2013-01-31 19:41:00,28.0,28.0,-100.00,WNW,300,0.0,3.0,99,0.00,,,0.01,0.000000,,2013-02-01 04:41:00,
2013-01-31 19:51:00,28.0,28.0,-100.00,WNW,300,0.0,3.0,99,0.00,,,0.01,0.000000,,2013-02-01 04:51:00,
2013-01-31 19:52:00,27.0,27.0,-100.00,NW,308,0.0,2.0,99,0.00,,,0.01,0.000000,,2013-02-01 04:52:00,
2013-01-31 20:22:00,27.0,27.0,-100.00,NW,308,0.0,2.0,99,0.00,,,0.01,0.000000,,2013-02-01 05:22:00,
2013-01-31 20:31:00,27.0,27.0,-100.00,NW,308,0.0,2.0,99,0.00,,,0.01,0.000000,,2013-02-01 05:31:00,
2013-01-31 20:41:00,27.0,27.0,-100.00,NW,308,0.0,2.0,99,0.00,,,0.01,0.000000,,2013-02-01 05:41:00,
2013-01-31 20:52:00,27.0,27.0,-100.00,NNW,335,0.0,2.0,100,0.00,,,0.01,0.000000,,2013-02-01 05:52:00,
2013-01-31 21:21:00,27.0,27.0,-100.00,NNW,335,0.0,2.0,100,0.00,,,0.01,0.000000,,2013-02-01 06:21:00,
2013-01-31 21:32:00,27.0,27.0,-100.00,NNW,335,0.0,2.0,100,0.00,,,0.01,0.000000,,2013-02-01 06:32:00,
2013-01-31 21:41:00,27.0,27.0,-100.00,NNW,335,0.0,2.0,100,0.00,,,0.01,0.000000,,2013-02-01 06:41:00,
2013-01-31 22:12:00,27.0,27.0,-100.00,North,359,2.0,4.0,99,0.00,,,0.01,0.000000,,2013-02-01 07:12:00,
2013-01-31 22:21:00,27.0,27.0,-100.00,North,359,2.0,4.0,99,0.00,,,0.01,0.000000,,2013-02-01 07:21:00,
2013-01-31 22:32:00,27.0,27.0,-100.00,North,359,2.0,4.0,99,0.00,,,0.01,0.000000,,2013-02-01 07:32:00,
2013-01-31 22:41:00,27.0,27.0,-100.00,North,359,2.0,4.0,99,0.00,,,0.01,0.000000,,2013-02-01 07:41:00,
2013-01-31 22:51:00,27.0,27.0,-100.00,North,359,2.0,4.0,99,0.00,,,0.01,0.000000,,2013-02-01 07:51:00,
2013-01-31 22:52:00,27.0,27.0,-100.00,NNE,18,2.0,6.0,99,0.00,,,0.01,0.000000,,2013-02-01 07:52:00,
2013-01-31 23:21:00,27.0,27.0,-100.00,NNE,18,2.0,6.0,99,0.00,,,0.01,0.000000,,2013-02-01 08:21:00,
2013-01-31 23:31:00,27.0,27.0,-100.00,NNE,18,2.0,6.0,99,0.00,,,0.01,0.000000,,2013-02-01 08:31:00,
2013-01-31 23:42:00,27.0,27.0,-100.00,NNE,18,2.0,6.0,99,0.00,,,0.01,0.000000,,2013-02-01 08:42:00,